CZ-2D DEB, 43490

Orbit data source: Space-Track

CZ-2D DEB, 43490 is space debris in SSO originally from a launch on Sat, 02 Jun 2018 UTC launched from the Jiuquan Satellite Launch Center, China (JSC). Debris objects in space refer to the collection of defunct objects orbiting the Earth. Examples of debris include non-operational satellites, rocket bodies, and fragments generated from explosions, collisions, or faulty payload assembly.

Loading next visibility...
Identifier
43490, 2018-048E
Orbit
SSO
Country
Flag of CNCN / PRC
Related business
Manufacturer
CALT
Mission
Spacecraft
Bus & Motor
Unknown
Mass
1 kg wet, 1 kg dry
Launch date (UTC)
2018-06-02 (7 years ago)
Launch vehicle
Unknown
Launch site
Jiuquan Satellite Launch Center, China (JSC)
Object type
Payload
Rocket body
Debris
Shape & HBR
Cone, 0.1 m
Radar Cross Section
0.025 m², Small (<0.1 m²)

Expand to show TLE details & history
Last TLE update: 14 hours ago

TLE from 14 hours ago
0 CZ-2D DEB
1 43490U 18048E   25258.36946994  .00007781  00000-0  76163-3 0  9992
2 43490  98.2450  46.7436 0024360 333.2053  26.7905 14.92384526393136
Epoch: 2025-09-15T08:52Z
TLE epoch observation values (Epoch: 2025-09-15T08:52:02.202Z)
Latitude
-0°
Longitude
-80.84068°
Altitude
578.382 km
Speed
7.58 km/s
True Right ascension
03h 06m 58s
True Declination
0° 00' 00"
Sunlit
Object was in full shadow at epoch
Visualization orbit readout
Latitude
Unknown
Longitude
Unknown
Altitude
Unknown
Speed
Unknown
Apparent Right ascension
Unknown
Apparent Declination
Unknown
Sunlit
N/A
Visualization observer readout
Local Sidereal Time
15:10:50
Azimuth
Unknown
Elevation
Unknown
Doppler factor
Unknown
Orbital elements
Apogee altitude
604.511 km
Perigee altitude
570.575 km
Semi-major axis
6,965.68 km
Eccentricity
0.00244
Inclination
98.245°
RAAN
46.7436°
Arg. of periapsis
333.2053°
True anomaly
26.91666°
Mean anomaly
26.7905°
Eccentric anomaly
26.85355°
Mean motion
3.73334 °/min
Orbital period
96.43 mins
BSTAR
0.00076163
Loading maneuver chart data...
Computing Atmospheric mass density...
Loading historical data...
Loading historical data...
Loading historical data...
Loading historical data...
Loading historical data...
Loading historical data...
Loading historical data...
Other satellites on launch #48 in the year 2018 (2018-06-02 UTC)

Documentation

Showing up to 5 results
|